Weather Roundup
Issued by NWS Springfield, MO

Home | Current Version | Previous Version | Text Only | Print | Product List | Glossary On
Versions: 1 2 3 4 5 6 7 8 9 10 11 12 13 14 15 16 17 18 19 20 21 22 23 24 25 26 27 28 29 30 31 32 33 34 35 36 37 38 39 40 41 42 43 44 45 46 47 48 49 50
000
NZUS99 KSGF 191759
HRRSGF

HOURLY WEATHER
NATIONAL WEATHER SERVICE SPRINGFIELD MO
100 PM CDT FRI SEP 19 2014

......SGF CWA......

CITY           SKY/WX    TMP DP  RH WIND       PRES   REMARKS
SPRINGFIELD    MOSUNNY   76  64  66 S7        30.06S
6HR MIN TEMP:  61; 6HR MAX TEMP:  76;

JOPLIN         PTSUNNY   76  67  73 S5        30.04F
6HR MIN TEMP:  62; 6HR MAX TEMP:  78;

WEST PLAINS    MOSUNNY   75  61  61 SE3       30.09S
6HR MIN TEMP:  53; 6HR MAX TEMP:  75;

ROLLA          PTSUNNY   73  60  63 VRB5      30.06F
6HR MIN TEMP:  55; 6HR MAX TEMP:  74;

OSAGE BEACH    MOSUNNY   75  61  60 S8        30.06F

......SURROUNDING SGF CWA......

CITY           SKY/WX    TMP DP  RH WIND       PRES   REMARKS
CHANUTE        CLOUDY    71  68  90 S9        30.03S
PARSONS        CLOUDY    71  69  93 S6        30.04S FOG
COFFEYVILLE    CLOUDY    72  68  87 S7        30.02F FOG
EMPORIA        CLOUDY    73  68  84 SE12      30.00S
GROVE OK       CLOUDY    75  73  94 CALM      30.04F
SILOAM SPRINGS PTSUNNY   75  64  69 CALM      30.06F
HARRISON AR    MOSUNNY   73  64  73 VRB5      30.08F
NEAR YELLVILLE PTSUNNY   75  61  60 S3        30.07S

......KANSAS AND MISSOURI......

CITY           SKY/WX    TMP DP  RH WIND       PRES   REMARKS
KANSAS CTY INT CLOUDY    69  65  86 SE9       30.01F FOG
DOWNTOWN KC    CLOUDY    70  65  84 S6        30.02S HAZE
COLUMBIA       MOSUNNY   75  61  61 SE8       30.06F
SEDALIA        CLOUDY    75  63  66 S8        30.05S
ST JOSEPH      CLOUDY    70  65  84 S12       29.99F
ST LOUIS       MOSUNNY   75  56  51 SE7       30.08F
SPIRIT OF STL  MOSUNNY   75  57  53 SE7       30.06F
KIRKSVILLE     SUNNY     74  58  57 S16G23    30.05F
WICHITA        MOSUNNY   87  65  47 S9        29.97F
TOPEKA         CLOUDY    73  67  81 S9        29.99S
OLATHE         CLOUDY    70  66  87 S9        30.02S FOG

......TENNESSEE......

CITY           SKY/WX    TMP DP  RH WIND       PRES   REMARKS
MEMPHIS        MOSUNNY   81  65  58 VRB3      30.04F
NASHVILLE      MOSUNNY   82  60  47 SE6       30.06F

......ARKANSAS.......

CITY           SKY/WX    TMP DP  RH WIND       PRES   REMARKS
FAYETTEVILLE   SUNNY     78  67  68 VRB3      30.05S
FT SMITH       PTSUNNY   78  67  68 E8        30.02F
LITTLE ROCK    MOSUNNY   84  67  56 NE6       30.03F

......OKLAHOMA.......

CITY           SKY/WX    TMP DP  RH WIND       PRES   REMARKS
TULSA          CLOUDY    75  69  81 SE7       30.01S FOG
PONCA CITY     MOSUNNY   82  70  66 S9        29.99F
MCALESTER      MOSUNNY   81  70  69 VRB3      30.02F
OKLAHOMA CITY  MOSUNNY   84  66  54 SE13G21   30.01S

......IOWA............

CITY           SKY/WX    TMP DP  RH WIND       PRES   REMARKS
DES MOINES     PTSUNNY   77  62  59 S18       29.95F
QUAD CITIES    SUNNY     73  52  47 S14       30.05F

......ILLINOIS........

CITY           SKY/WX    TMP DP  RH WIND       PRES   REMARKS
QUINCY         SUNNY     74  54  49 S9        30.06F
CHICAGO        MOSUNNY   72  46  39 S20G26    30.11F



USA.gov is the U.S. government's official web portal to all federal, state and local government web resources and services.